{"data":{"norad_id":44344,"intl_designator":"2019-036F","name":"DSX","alt_names":[],"object_type":"PAYLOAD","status":"ACTIVE","operator":null,"country":"US","launch_date":"2019-06-25","launch_site_code":"AFETR","launch_vehicle":null,"mission":null,"orbit_class":"UNKNOWN","rcs_meters":null,"size_class":null,"mass_kg":null,"dimensions":null,"purposes":[],"wikipedia_slug":null,"has_3d_model":false,"image_url":null,"decayed_at":null,"tle_current":{"epoch":"2026-05-25T02:10:59.574720Z","epoch_age_seconds":71157,"freshness":"FRESH","line1":"1 44344U 19036F   26145.09096730 -.00000057  00000+0  00000+0 0  9991","line2":"2 44344  42.3288 359.1230 1967588   5.9564 356.1242  4.54375144114741","mean_motion":4.54375144,"eccentricity":0.1967588,"inclination_deg":42.3288,"raan_deg":359.123,"arg_perigee_deg":5.9564,"mean_anomaly_deg":356.1242,"bstar":0,"rev_number":11474,"period_min":316.91874412919,"perigee_km":5990.0138549335,"apogee_km":12049.320873636,"semimajor_km":15397.804364285,"source":"CELESTRAK","updated_at":"2026-05-25T13:37:55.969783Z"}}}